Weather History for Salt Point, LA

Change the Weather History Date:

Saturday, August 11, 2012

  Actual Average Record
Temperature  
Mean Temperature 81 °F -  
Max Temperature 88 °F 87 °F 95 °F (2007)
Min Temperature 75 °F 75 °F 72 °F (2000)
Cooling Degree Days 16    
Growing Degree Days 31 (Base 50)    
Moisture  
Dew Point 76 °F    
Average Humidity 79    
Maximum Humidity 91    
Minimum Humidity 69    
Precipitation  
Precipitation 0.40 in - - ()
Sea Level Pressure  
Sea Level Pressure 29.92 in    
Wind  
Wind Speed 5 mph (SW)    
Max Wind Speed 9 mph    
Max Gust Speed 18 mph    
Averages and records for this station are not official NWS values.
T = Trace of Precipitation, MM = Missing Value Source: NWS Daily Summary

Daily Weather History Graph

Daily Weather History Graph

Search for Another Location

Airport:

Trip Planner

Search our weather history database for the weather conditions in past years. The results will help you decide how hot, cold, wet, or windy it might be!

Date:

Astronomy

Aug. 11, 2012 Rise Set
Actual Time 6:32 AM CDT 7:49 PM CDT
Civil Twilight 6:06 AM CDT 8:15 PM CDT
Nautical Twilight 5:36 AM CDT 8:44 PM CDT
Astronomical Twilight 5:05 AM CDT 9:15 PM CDT
Moon 1:08 AM CDT (8/11) 3:15 PM CDT (8/11)
Length of Visible Light 14h 08m
Length of Day
13h 17m
Waning Crescent, 32% of the Moon is Illuminated
Aug 11
Waning Crescent
Aug 17
New
Aug 24
First Quarter
Aug 31
Full
Sep 8
Last Quarter

Hourly Weather History & Observations

Time (CDT) Temp. Heat Index Dew Point Humidity Pressure Visibility Wind Dir Wind Speed Gust Speed Precip Events Conditions
12:53 AM 86.0 °F 96.9 °F 77.0 °F 74% 29.88 in - SW 5.8 mph - N/A   Unknown
1:53 AM 87.1 °F 97.3 °F 75.9 °F 69% 29.88 in - Variable 5.8 mph - N/A   Unknown
2:53 AM 86.0 °F 96.0 °F 75.9 °F 72% 29.88 in - Variable 5.8 mph - N/A   Unknown
3:53 AM 86.0 °F 96.0 °F 75.9 °F 72% 29.88 in - SW 6.9 mph - N/A   Unknown
4:53 AM 86.0 °F 96.9 °F 77.0 °F 74% 29.87 in - SW 5.8 mph - N/A   Unknown
5:53 AM 86.0 °F 95.1 °F 75.0 °F 70% 29.90 in - WSW 8.1 mph - N/A   Unknown
6:53 AM 86.0 °F 96.0 °F 75.9 °F 72% 29.90 in - Variable 5.8 mph - N/A   Unknown
7:53 AM 86.0 °F 96.0 °F 75.9 °F 72% 29.91 in - West 9.2 mph - N/A   Unknown
8:53 AM 77.0 °F - 73.0 °F 88% 29.95 in - North 9.2 mph 18.4 mph 0.07 in   Unknown
9:53 AM 75.0 °F - 72.0 °F 90% 29.98 in - Calm Calm - 0.12 in   Unknown
10:53 AM 75.9 °F - 73.0 °F 91% 29.99 in - ESE 6.9 mph - 0.13 in   Unknown
11:53 AM 78.1 °F - 75.0 °F 90% 29.96 in - Calm Calm - 0.07 in   Unknown
12:53 PM 82.9 °F 91.8 °F 77.0 °F 82% 29.95 in - Variable 3.5 mph - N/A   Unknown
1:53 PM 84.9 °F 95.3 °F 77.0 °F 77% 29.94 in - Variable 4.6 mph - N/A   Unknown
2:53 PM 86.0 °F 96.9 °F 77.0 °F 74% 29.93 in - SW 4.6 mph - 0.01 in   Unknown
3:53 PM 87.1 °F 99.8 °F 78.1 °F 74% 29.92 in - SW 4.6 mph - N/A   Unknown
4:53 PM 87.1 °F 99.8 °F 78.1 °F 74% 29.92 in - SW 3.5 mph - N/A   Unknown
5:53 PM 86.0 °F 96.9 °F 77.0 °F 74% 29.91 in - Variable 4.6 mph - N/A   Unknown
6:53 PM 86.0 °F 98.3 °F 78.1 °F 77% 29.92 in - Calm Calm - N/A   Unknown
7:53 PM 86.0 °F 98.3 °F 78.1 °F 77% 29.91 in - Variable 3.5 mph - N/A   Unknown
8:53 PM 84.0 °F 92.6 °F 75.9 °F 76% 29.92 in - Calm Calm - N/A   Unknown
9:53 PM 81.0 °F 87.9 °F 77.0 °F 88% 29.94 in - Calm Calm - N/A   Unknown
10:53 PM 81.0 °F 87.9 °F 77.0 °F 88% 29.95 in - Calm Calm - N/A   Unknown
11:53 PM 80.1 °F 85.8 °F 77.0 °F 90% 29.96 in - Calm Calm - N/A   Unknown